SCP
0 0 0 0 0 0 0 0 0 0 0 0 0 0 0 0 0 0 0 0 0 0 0 0 0 0 0 0 0 0 0 0 0 0 0 0 0 0 0 0 0 0 0 0 0
0 0 0 0 0 0 0 0 0 0 0 0 0 0 0 0 0 0 0 0 0 0 0 0 0 0 0 0 0 0 0 0 0 0 0 0 0 0 0 0 0 0 0 0 0
0 0 0 0 0 0 0 0 0 0 0 0 0 0 0 0 0 0 0 -0 0 0 0 0 0 0 0 0 0 0 0 0 0 0 0 0 0 0 0 0 0 0 0 0 0
0 0 0 0 0 0 0 0 0 0 0 0 0 0 0 0 0 0 0 0 0 0 0 0 0 0 0 0 0 0 0 0 0 0 0 0 0 -0 0 0 0 0 0 0 0
0 0 0 0 0 0 0 0 0 0 0 0 0 0 0 0 0 0 0 0 0 0 0 0 0 0 0 0 0 0 0 0 0 0 0 0 0 0 -0 0 0 0 0 0 0
0 0 0 0 0 0 0 0 0 0 0 0 0 0 0 0 0 0 0 -0 -0 0 0 0 0 0 0 0 0 0 0 0 0 0 0 0 0 0 0 0 0 0 0 0 0
0 0 0 0 0 0 0 0 0 0 0 0 0 0 0 0 0 0 0 0 0 0 0 0 0 0 0 0 0 0 0 0 0 0 0 0 0 0 0 0 0 0 0 0 0
0 0 0 0 0 0 0 0 0 0 0 0 0 0 0 0 0 0 0 0 0 0 0 0 0 0 0 0 0 0 0 0 0 0 0 0 0 0 0 0 0 0 0 0 0
0 0 0 0 0 0 0 0 0 0 0 0 0 0 0 0 0 0 0 0 0 0 0 0 0 0 0 0 0 0 0 0 0 0 0 0 0 0 0 0 0 0 0 0 0
0 0 0 0 0 0 0 0 0 0 0 0 0 0 0 0 0 0 0 0 0 0 0 0 0 0 0 0 0 0 0 0 0 0 0 0 0 0 0 0 0 0 0 0 0
0 0 0 0 0 0 0 0 0 0 0 0 0 0 0 0 0 0 0 0 0 0 0 0 0 0 0 0 0 0 0 0 0 0 0 0 0 0 0 0 0 0 0 0 0
0 0 0 0 0 0 0 0 0 0 0 0 0 0 0 0 0 0 0 0 0 0 0 0 0 0 0 0 0 0 0 0 0 0 0 0 0 0 0 0 0 0 0 0 0
-0 -0 -0 -0 -0 0 -0 0 -0 0 0 0 0 0 -0 -0 0 0 -0 -0 -0 0 0 0 0 0 0 0 0 0 0 0 0 0 0 0 0 0 0 0 0 0 0 0 0
-0 -0 -0 -0 0 0 0 0 -0 0 0 0 -0 -0 -0 -0 0 0 0 -0 0 0 0 0 0 0 0 0 0 0 0 0 0 0 0 0 0 0 0 0 0 0 0 0 0
0 0 0 -0 -0 0 0 0 -0 0 0 0 -0 0 -0 -0 -0 0 0 -0 0 0 0 0 0 0 0 0 0 0 0 0 0 0 0 0 0 0 0 0 0 0 0 0 0
-0 -0 -0 0 0 0 0 -0 0 0 0 -0 -0 -0 -0 -0 -0 -0 -0 -0 0 0 0 0 0 0 0 0 0 0 0 0 0 0 0 0 0 0 0 0 0 0 0 0 0
-0 -0 -0 0 0 0 -0 0 0 -0 -0 -0 -0 -0 -0 -0 -0 -0 -0 -0 -0 -0 -0 -0 0 0 0 0 0 0 0 0 0 0 0 0 0 0 0 0 0 0 0 0 0
-0 -0 -0 0 -0 -0 0 0 0 -0 -0 0 -0 -0 -0 -0 -0 -0 -0 -0 0 0 0 0 -0 0 0 0 0 0 0 0 0 0 0 0 0 0 0 0 0 0 0 0 0
-0 0 0 0 -0 0 0 0 -0 -0 -0 0 -0 0 -0 0 0 0 -0 0 0 0 0 0 0 -0 0 -0 -0 0 0 0 0 0 0 0 0 0 0 0 0 0 0 0 0
0 0 0 0 0 0 -0 -0 -0 -0 0 0 0 0 0 0 0 0 0 0 0 0 0 0 0 0 0 -0 0 -0 0 0 0 0 0 0 0 0 0 0 0 0 0 0 0
0 0 0 0 0 0 -0 -0 -0 0 0 0 0 0 0 0 0 0 0 0 0 0 0 0 0 0 0 0 -0 -0 -0 0 0 0 0 0 0 0 0 0 0 0 0 0 0
0 0 0 -0 -0 -0 -0 -0 0 0 0 0 0 0 0 0 0 0 0 0 0 0 0 0 0 0 0 -0 0 -0 -0 -0 0 0 0 0 0 0 0 0 0 -0 -0 0 0
0 0 0 0 0 -0 -0 -0 0 0 0 0 0 0 0 0 0 0 0 0 0 0 0 0 0 0 0 0 0 -0 -0 -0 0 0 0 0 0 -0 -0 0 0 0 0 0 0
0 0 0 0 -0 0 0 0 0 0 0 0 0 0 0 0 0 0 0 0 0 0 0 0 0 0 0 0 0 -0 0 0 -0 0 0 0 0 -0 -0 -0 0 0 0 -0 0
0 0 0 0 0 0 0 0 0 0 0 0 0 0 0 0 0 0 0 0 0 0 0 0 0 0 0 0 0 0 0 0 0 -0 0 0 0 -0 -0 -0 -0 -0 -0 0 0
0 0 0 0 0 0 0 0 0 0 0 0 0 0 0 0 0 0 0 0 0 0 0 0 0 0 0 0 0 0 0 0 0 0 0 -0 -0 -0 -0 -0 -0 -0 -0 -0 0
0 0 0 0 0 0 0 0 0 0 0 0 0 0 0 0 0 0 0 0 0 0 0 0 0 0 0 0 0 0 -0 -0 0 0 0 -0 0 0 -0 -0 -0 -0 -0 -0 0
Wind_Speed_500mb
29 29 27 26 25 26 27 29 29 30 30 30 30 31 34 38 42 46 54 39 42 32 32 31 28 17 12 18 32 26 9 23 36 33 50 42 28 55 61 42 38 42 44 43 31
30 31 31 32 33 35 36 35 34 33 33 33 35 35 36 43 50 57 19 10 15 13 19 29 32 18 14 15 16 16 13 25 17 19 29 39 36 38 27 41 38 45 36 26 19
31 32 33 33 35 36 37 39 43 45 45 42 39 38 35 39 44 11 17 25 36 31 21 20 15 18 33 23 21 20 29 26 29 46 38 31 50 48 23 24 36 40 46 35 41
37 37 36 36 36 37 37 38 39 39 39 41 44 43 36 32 11 11 35 54 50 39 25 17 21 13 10 17 46 19 25 43 41 54 44 27 60 42 42 53 67 75 73 63 70
45 45 45 45 43 42 41 39 38 38 39 38 37 35 26 14 22 45 49 44 38 36 29 27 29 28 12 14 34 29 23 47 62 64 64 62 48 57 73 61 68 76 92 98 88
49 50 51 52 51 50 46 43 40 37 35 33 33 26 11 3 22 42 50 54 46 30 28 28 17 33 24 21 20 15 21 38 41 40 40 25 41 45 82 65 58 65 79 90 100
53 54 55 56 54 50 45 42 38 33 29 25 21 10 10 19 39 39 37 46 55 39 35 31 39 50 18 14 42 35 29 36 33 26 15 19 49 56 98 71 82 76 89 96 98
52 52 54 54 51 47 40 37 28 24 21 12 5 6 12 20 43 58 64 53 35 35 37 40 42 45 40 34 27 14 11 10 5 27 21 30 65 5 4 30 54 68 81 90 92
52 51 52 47 49 45 37 24 21 32 34 27 28 14 14 29 62 58 51 53 47 32 31 31 28 24 24 13 13 9 30 33 44 29 15 28 53 30 71 66 62 41 40 61 72
52 49 51 40 52 51 40 17 41 48 26 23 35 16 64 66 48 68 61 44 45 41 22 9 12 11 12 14 32 16 17 29 34 13 36 33 57 45 25 35 46 61 63 71 70
54 49 50 32 50 57 46 15 10 15 76 40 37 35 57 61 28 80 91 44 53 36 13 12 9 34 45 18 42 40 42 46 43 12 23 30 50 54 35 49 51 63 68 81 87
51 49 46 17 46 48 55 34 27 17 26 35 38 57 69 59 33 77 87 51 29 23 15 8 40 42 36 32 33 46 54 59 60 39 22 32 50 60 33 24 53 60 59 74 85
46 49 44 8 26 45 47 37 15 14 10 31 46 73 70 56 49 75 82 54 16 21 18 24 42 45 43 46 44 53 45 52 48 44 36 41 42 51 36 23 52 60 69 68 84
45 44 46 30 10 53 48 25 15 19 10 28 27 38 65 38 30 59 64 46 23 22 24 30 29 41 43 44 48 58 48 55 53 38 38 16 41 53 46 43 30 42 63 87 77
43 40 43 39 28 45 36 16 20 7 12 35 16 33 38 44 40 62 48 37 21 29 14 26 46 48 39 34 56 48 29 29 39 49 48 51 25 46 34 31 37 40 53 44 27
36 50 47 40 33 32 19 8 8 10 4 14 17 29 34 44 26 49 29 54 16 12 33 39 39 15 21 66 35 42 42 36 39 26 35 55 34 34 44 35 33 34 60 17 29
43 54 42 42 53 33 8 6 10 15 10 19 13 19 18 30 16 40 30 18 16 24 45 25 44 36 39 74 52 59 47 13 10 13 22 21 20 34 40 19 30 22 26 35 38
23 55 35 35 26 18 3 12 22 10 10 9 14 24 12 28 12 30 30 9 10 22 25 27 38 46 58 48 32 64 27 18 24 16 8 11 12 11 44 27 44 39 33 44 49
15 46 48 48 24 19 7 16 14 8 6 9 19 9 10 14 9 16 21 3 12 14 19 22 32 65 47 42 26 26 35 48 16 8 7 6 10 20 30 32 36 31 42 46 51
12 16 52 35 29 16 17 15 5 4 8 7 6 6 6 13 14 16 8 7 19 24 40 15 47 23 52 37 8 17 36 18 12 5 11 7 7 6 29 27 29 35 34 48 54
14 8 49 36 30 38 10 6 3 6 13 3 5 7 5 10 12 9 9 20 4 37 30 23 5 42 22 20 38 13 25 18 14 15 10 4 10 23 29 26 27 28 46 52 55
12 9 45 19 21 15 5 8 6 4 7 4 3 3 3 18 9 6 10 10 41 34 28 8 10 15 37 39 18 6 20 21 11 20 17 12 5 28 29 27 27 33 45 53 56
9 10 31 22 8 6 6 2 3 5 5 2 3 3 5 11 10 13 11 34 31 34 9 10 7 19 23 11 20 17 29 33 29 16 22 12 14 38 21 27 39 39 46 50 54
5 6 17 28 19 10 5 5 3 10 7 3 7 5 2 17 15 14 29 18 50 37 32 26 2 10 16 30 30 32 40 36 21 13 21 28 46 35 32 31 35 43 46 46 51
11 6 7 3 8 4 3 6 5 4 6 1 6 9 6 7 20 12 19 24 41 45 11 5 9 9 24 32 40 40 40 34 33 37 21 48 41 25 20 19 24 32 39 43 48
9 8 5 4 9 3 5 6 10 7 8 9 11 14 15 11 18 41 20 21 18 14 6 4 9 19 12 33 35 34 30 32 21 15 14 20 13 28 14 26 34 35 33 36 40
12 10 4 7 4 7 7 9 10 1 18 32 9 17 25 30 32 46 50 56 42 27 31 7 5 5 13 30 33 12 13 20 29 11 17 14 15 28 19 22 31 34 36 36 36
Wind_Direction_500mb
345 340 336 330 325 320 316 315 315 314 312 311 312 314 317 315 312 307 299 305 293 281 267 255 254 256 215 218 213 217 232 240 239 235 260 274 281 276 268 274 288 282 266 280 255
342 337 332 326 320 315 313 309 304 299 297 298 302 307 314 316 316 311 328 23 27 354 288 263 252 221 197 216 205 191 210 226 237 248 270 277 279 301 293 291 290 290 282 262 223
346 340 333 328 322 317 314 311 309 309 307 304 302 306 314 319 323 350 359 350 337 326 293 266 214 216 220 225 215 216 233 236 258 259 268 284 283 285 283 280 277 279 279 279 257
353 345 339 332 325 318 313 306 300 296 293 297 302 304 312 320 318 330 308 309 309 310 277 225 205 221 216 213 231 263 236 233 250 258 268 273 290 279 254 259 272 274 276 275 273
356 350 343 337 333 327 322 314 306 298 292 289 287 291 304 306 300 322 323 321 314 308 280 227 213 219 211 215 238 242 244 246 252 259 262 270 267 271 271 272 269 268 264 265 264
353 349 344 340 338 334 330 321 314 305 298 289 282 289 313 356 345 327 330 317 324 306 273 239 240 240 258 245 240 260 269 259 259 261 269 258 271 273 272 268 258 260 262 264 261
355 350 346 343 341 339 336 326 320 311 301 291 281 283 24 23 356 339 330 317 309 300 278 268 264 268 270 306 272 286 282 273 261 257 245 272 275 249 259 266 259 253 258 263 262
355 352 348 346 343 347 345 336 333 336 350 354 34 96 87 23 355 3 1 353 315 304 273 270 273 284 262 269 308 298 286 276 198 208 241 181 257 246 234 246 255 253 255 259 259
358 358 354 354 349 351 355 359 32 45 58 65 44 55 36 346 7 13 3 347 336 311 307 285 288 266 260 235 282 201 263 262 271 224 233 180 253 252 246 252 258 247 265 266 264
2 6 358 3 356 354 9 81 80 47 76 69 34 97 22 354 9 358 359 350 344 334 326 316 263 264 253 197 238 226 231 249 247 214 211 222 255 258 225 225 245 260 266 274 271
5 9 359 11 10 357 18 122 79 44 61 67 70 69 5 3 21 13 358 357 3 9 349 292 252 238 249 239 253 264 268 271 262 260 235 234 249 261 250 243 256 257 261 264 268
9 12 6 25 26 10 17 73 47 87 74 59 31 21 12 1 16 10 360 7 344 343 331 343 255 272 284 277 273 255 255 258 269 270 265 273 270 275 256 234 235 245 240 249 261
14 13 18 30 31 27 30 60 106 104 81 13 31 21 9 348 28 5 4 347 314 327 302 274 280 305 286 282 276 265 254 259 262 280 258 269 272 273 266 258 246 248 254 255 257
14 21 15 32 20 13 27 41 99 131 83 352 5 12 7 1 14 356 2 354 319 344 316 274 321 317 313 296 273 266 275 288 288 285 275 212 269 264 270 266 255 250 258 260 261
10 18 28 22 19 15 5 58 108 120 63 323 356 350 16 33 327 344 2 351 20 327 354 319 314 310 294 324 313 272 262 274 279 276 278 263 260 273 266 270 260 253 257 272 303
18 14 5 25 22 12 17 77 93 42 313 328 336 336 10 4 9 349 22 29 21 348 346 333 317 327 355 343 318 308 274 291 282 256 244 250 237 251 261 261 259 274 270 73 66
31 22 10 9 359 359 26 114 41 80 338 312 322 331 9 350 353 360 346 41 26 345 355 343 339 340 23 337 328 345 333 259 236 209 248 226 248 242 272 246 256 287 56 51 53
23 33 24 15 357 352 60 58 67 241 249 275 307 311 360 0 336 352 345 359 13 16 337 346 341 354 328 323 309 303 277 271 257 228 246 192 237 238 246 270 253 82 66 48 43
7 31 25 27 24 13 64 52 168 222 255 304 320 37 316 1 316 349 339 284 7 16 5 320 318 311 308 332 335 330 335 294 275 260 282 192 293 300 28 53 49 53 46 42 38
7 25 16 19 27 39 67 106 124 354 332 317 30 23 319 317 6 354 322 242 335 353 347 307 312 301 321 316 12 325 347 346 323 274 216 204 198 268 23 36 38 37 35 35 33
30 38 8 17 45 55 88 167 142 342 14 323 338 301 306 342 320 299 258 300 23 333 328 308 235 309 331 338 326 20 12 10 296 326 334 337 88 36 40 41 46 42 39 34 30
43 45 9 22 49 55 72 164 172 257 337 303 3 267 234 332 299 295 270 287 323 335 324 264 278 300 310 308 101 45 15 14 343 328 308 268 86 60 31 30 48 47 41 36 30
53 2 19 31 78 4 354 323 227 219 236 246 260 102 312 326 324 273 286 303 321 339 302 320 340 326 326 342 318 334 340 334 314 281 299 324 285 18 24 33 39 42 37 31 27
51 29 32 53 72 113 96 281 301 246 248 116 247 285 345 310 283 276 293 302 320 320 320 356 302 178 290 287 294 300 308 302 294 284 296 277 292 4 351 31 25 25 29 27 27
40 62 29 322 11 41 102 212 240 274 200 196 292 194 199 286 298 254 300 304 314 312 306 160 249 167 275 281 292 292 290 301 284 259 259 279 302 355 21 24 25 23 19 18 21
64 29 356 296 278 122 257 243 207 253 169 265 199 274 278 221 236 288 297 302 276 299 16 311 260 310 285 300 297 301 311 338 320 342 339 310 3 359 11 20 24 20 19 23 18
48 16 329 265 203 96 229 212 217 6 276 248 231 312 285 278 294 294 287 279 264 267 276 246 194 342 266 307 322 349 357 1 343 43 331 1 353 347 9 28 24 19 18 15 13
Wind_Speed_850mb
29 29 27 26 25 26 27 29 29 30 30 30 30 31 34 38 42 46 54 39 42 32 32 31 28 17 12 18 32 26 9 23 36 33 50 42 28 55 61 42 38 42 44 43 31
30 31 31 32 33 35 36 35 34 33 33 33 35 35 36 43 50 57 19 10 15 13 19 29 32 18 14 15 16 16 13 25 17 19 29 39 36 38 27 41 38 45 36 26 19
31 32 33 33 35 36 37 39 43 45 45 42 39 38 35 39 44 11 17 25 36 31 21 20 15 18 33 23 21 20 29 26 29 46 38 31 50 48 23 24 36 40 46 35 41
37 37 36 36 36 37 37 38 39 39 39 41 44 43 36 32 11 11 35 54 50 39 25 17 21 13 10 17 46 19 25 43 41 54 44 27 60 42 42 53 67 75 73 63 70
45 45 45 45 43 42 41 39 38 38 39 38 37 35 26 14 22 45 49 44 38 36 29 27 29 28 12 14 34 29 23 47 62 64 64 62 48 57 73 61 68 76 92 98 88
49 50 51 52 51 50 46 43 40 37 35 33 33 26 11 3 22 42 50 54 46 30 28 28 17 33 24 21 20 15 21 38 41 40 40 25 41 45 82 65 58 65 79 90 100
53 54 55 56 54 50 45 42 38 33 29 25 21 10 10 19 39 39 37 46 55 39 35 31 39 50 18 14 42 35 29 36 33 26 15 19 49 56 98 71 82 76 89 96 98
52 52 54 54 51 47 40 37 28 24 21 12 5 6 12 20 43 58 64 53 35 35 37 40 42 45 40 34 27 14 11 10 5 27 21 30 65 5 4 30 54 68 81 90 92
52 51 52 47 49 45 37 24 21 32 34 27 28 14 14 29 62 58 51 53 47 32 31 31 28 24 24 13 13 9 30 33 44 29 15 28 53 30 71 66 62 41 40 61 72
52 49 51 40 52 51 40 17 41 48 26 23 35 16 64 66 48 68 61 44 45 41 22 9 12 11 12 14 32 16 17 29 34 13 36 33 57 45 25 35 46 61 63 71 70
54 49 50 32 50 57 46 15 10 15 76 40 37 35 57 61 28 80 91 44 53 36 13 12 9 34 45 18 42 40 42 46 43 12 23 30 50 54 35 49 51 63 68 81 87
51 49 46 17 46 48 55 34 27 17 26 35 38 57 69 59 33 77 87 51 29 23 15 8 40 42 36 32 33 46 54 59 60 39 22 32 50 60 33 24 53 60 59 74 85
46 49 44 8 26 45 47 37 15 14 10 31 46 73 70 56 49 75 82 54 16 21 18 24 42 45 43 46 44 53 45 52 48 44 36 41 42 51 36 23 52 60 69 68 84
45 44 46 30 10 53 48 25 15 19 10 28 27 38 65 38 30 59 64 46 23 22 24 30 29 41 43 44 48 58 48 55 53 38 38 16 41 53 46 43 30 42 63 87 77
43 40 43 39 28 45 36 16 20 7 12 35 16 33 38 44 40 62 48 37 21 29 14 26 46 48 39 34 56 48 29 29 39 49 48 51 25 46 34 31 37 40 53 44 27
36 50 47 40 33 32 19 8 8 10 4 14 17 29 34 44 26 49 29 54 16 12 33 39 39 15 21 66 35 42 42 36 39 26 35 55 34 34 44 35 33 34 60 17 29
43 54 42 42 53 33 8 6 10 15 10 19 13 19 18 30 16 40 30 18 16 24 45 25 44 36 39 74 52 59 47 13 10 13 22 21 20 34 40 19 30 22 26 35 38
23 55 35 35 26 18 3 12 22 10 10 9 14 24 12 28 12 30 30 9 10 22 25 27 38 46 58 48 32 64 27 18 24 16 8 11 12 11 44 27 44 39 33 44 49
15 46 48 48 24 19 7 16 14 8 6 9 19 9 10 14 9 16 21 3 12 14 19 22 32 65 47 42 26 26 35 48 16 8 7 6 10 20 30 32 36 31 42 46 51
12 16 52 35 29 16 17 15 5 4 8 7 6 6 6 13 14 16 8 7 19 24 40 15 47 23 52 37 8 17 36 18 12 5 11 7 7 6 29 27 29 35 34 48 54
14 8 49 36 30 38 10 6 3 6 13 3 5 7 5 10 12 9 9 20 4 37 30 23 5 42 22 20 38 13 25 18 14 15 10 4 10 23 29 26 27 28 46 52 55
12 9 45 19 21 15 5 8 6 4 7 4 3 3 3 18 9 6 10 10 41 34 28 8 10 15 37 39 18 6 20 21 11 20 17 12 5 28 29 27 27 33 45 53 56
9 10 31 22 8 6 6 2 3 5 5 2 3 3 5 11 10 13 11 34 31 34 9 10 7 19 23 11 20 17 29 33 29 16 22 12 14 38 21 27 39 39 46 50 54
5 6 17 28 19 10 5 5 3 10 7 3 7 5 2 17 15 14 29 18 50 37 32 26 2 10 16 30 30 32 40 36 21 13 21 28 46 35 32 31 35 43 46 46 51
11 6 7 3 8 4 3 6 5 4 6 1 6 9 6 7 20 12 19 24 41 45 11 5 9 9 24 32 40 40 40 34 33 37 21 48 41 25 20 19 24 32 39 43 48
9 8 5 4 9 3 5 6 10 7 8 9 11 14 15 11 18 41 20 21 18 14 6 4 9 19 12 33 35 34 30 32 21 15 14 20 13 28 14 26 34 35 33 36 40
12 10 4 7 4 7 7 9 10 1 18 32 9 17 25 30 32 46 50 56 42 27 31 7 5 5 13 30 33 12 13 20 29 11 17 14 15 28 19 22 31 34 36 36 36
Wind_Direction_850mb
345 340 336 330 325 320 316 315 315 314 312 311 312 314 317 315 312 307 299 305 293 281 267 255 254 256 215 218 213 217 232 240 239 235 260 274 281 276 268 274 288 282 266 280 255
342 337 332 326 320 315 313 309 304 299 297 298 302 307 314 316 316 311 328 23 27 354 288 263 252 221 197 216 205 191 210 226 237 248 270 277 279 301 293 291 290 290 282 262 223
346 340 333 328 322 317 314 311 309 309 307 304 302 306 314 319 323 350 359 350 337 326 293 266 214 216 220 225 215 216 233 236 258 259 268 284 283 285 283 280 277 279 279 279 257
353 345 339 332 325 318 313 306 300 296 293 297 302 304 312 320 318 330 308 309 309 310 277 225 205 221 216 213 231 263 236 233 250 258 268 273 290 279 254 259 272 274 276 275 273
356 350 343 337 333 327 322 314 306 298 292 289 287 291 304 306 300 322 323 321 314 308 280 227 213 219 211 215 238 242 244 246 252 259 262 270 267 271 271 272 269 268 264 265 264
353 349 344 340 338 334 330 321 314 305 298 289 282 289 313 356 345 327 330 317 324 306 273 239 240 240 258 245 240 260 269 259 259 261 269 258 271 273 272 268 258 260 262 264 261
355 350 346 343 341 339 336 326 320 311 301 291 281 283 24 23 356 339 330 317 309 300 278 268 264 268 270 306 272 286 282 273 261 257 245 272 275 249 259 266 259 253 258 263 262
355 352 348 346 343 347 345 336 333 336 350 354 34 96 87 23 355 3 1 353 315 304 273 270 273 284 262 269 308 298 286 276 198 208 241 181 257 246 234 246 255 253 255 259 259
358 358 354 354 349 351 355 359 32 45 58 65 44 55 36 346 7 13 3 347 336 311 307 285 288 266 260 235 282 201 263 262 271 224 233 180 253 252 246 252 258 247 265 266 264
2 6 358 3 356 354 9 81 80 47 76 69 34 97 22 354 9 358 359 350 344 334 326 316 263 264 253 197 238 226 231 249 247 214 211 222 255 258 225 225 245 260 266 274 271
5 9 359 11 10 357 18 122 79 44 61 67 70 69 5 3 21 13 358 357 3 9 349 292 252 238 249 239 253 264 268 271 262 260 235 234 249 261 250 243 256 257 261 264 268
9 12 6 25 26 10 17 73 47 87 74 59 31 21 12 1 16 10 360 7 344 343 331 343 255 272 284 277 273 255 255 258 269 270 265 273 270 275 256 234 235 245 240 249 261
14 13 18 30 31 27 30 60 106 104 81 13 31 21 9 348 28 5 4 347 314 327 302 274 280 305 286 282 276 265 254 259 262 280 258 269 272 273 266 258 246 248 254 255 257
14 21 15 32 20 13 27 41 99 131 83 352 5 12 7 1 14 356 2 354 319 344 316 274 321 317 313 296 273 266 275 288 288 285 275 212 269 264 270 266 255 250 258 260 261
10 18 28 22 19 15 5 58 108 120 63 323 356 350 16 33 327 344 2 351 20 327 354 319 314 310 294 324 313 272 262 274 279 276 278 263 260 273 266 270 260 253 257 272 303
18 14 5 25 22 12 17 77 93 42 313 328 336 336 10 4 9 349 22 29 21 348 346 333 317 327 355 343 318 308 274 291 282 256 244 250 237 251 261 261 259 274 270 73 66
31 22 10 9 359 359 26 114 41 80 338 312 322 331 9 350 353 360 346 41 26 345 355 343 339 340 23 337 328 345 333 259 236 209 248 226 248 242 272 246 256 287 56 51 53
23 33 24 15 357 352 60 58 67 241 249 275 307 311 360 0 336 352 345 359 13 16 337 346 341 354 328 323 309 303 277 271 257 228 246 192 237 238 246 270 253 82 66 48 43
7 31 25 27 24 13 64 52 168 222 255 304 320 37 316 1 316 349 339 284 7 16 5 320 318 311 308 332 335 330 335 294 275 260 282 192 293 300 28 53 49 53 46 42 38
7 25 16 19 27 39 67 106 124 354 332 317 30 23 319 317 6 354 322 242 335 353 347 307 312 301 321 316 12 325 347 346 323 274 216 204 198 268 23 36 38 37 35 35 33
30 38 8 17 45 55 88 167 142 342 14 323 338 301 306 342 320 299 258 300 23 333 328 308 235 309 331 338 326 20 12 10 296 326 334 337 88 36 40 41 46 42 39 34 30
43 45 9 22 49 55 72 164 172 257 337 303 3 267 234 332 299 295 270 287 323 335 324 264 278 300 310 308 101 45 15 14 343 328 308 268 86 60 31 30 48 47 41 36 30
53 2 19 31 78 4 354 323 227 219 236 246 260 102 312 326 324 273 286 303 321 339 302 320 340 326 326 342 318 334 340 334 314 281 299 324 285 18 24 33 39 42 37 31 27
51 29 32 53 72 113 96 281 301 246 248 116 247 285 345 310 283 276 293 302 320 320 320 356 302 178 290 287 294 300 308 302 294 284 296 277 292 4 351 31 25 25 29 27 27
40 62 29 322 11 41 102 212 240 274 200 196 292 194 199 286 298 254 300 304 314 312 306 160 249 167 275 281 292 292 290 301 284 259 259 279 302 355 21 24 25 23 19 18 21
64 29 356 296 278 122 257 243 207 253 169 265 199 274 278 221 236 288 297 302 276 299 16 311 260 310 285 300 297 301 311 338 320 342 339 310 3 359 11 20 24 20 19 23 18
48 16 329 265 203 96 229 212 217 6 276 248 231 312 285 278 294 294 287 279 264 267 276 246 194 342 266 307 322 349 357 1 343 43 331 1 353 347 9 28 24 19 18 15 13